Location: Tucson
(32.2217°N, 110.9265°W)
Time: 09:42:29
(UTC-07:00)

Envisat - Pass Details

Date: 05 October 2021
Orbit: 764 x 766 km, 98.2° (Epoch: 22 October)

Event Time Altitude Azimuth Distance (km) Brightness Sun altitude
Rises 04:10:46 0° 38° (NE) 3,229 6.9 -28.1°
Reaches altitude 10° 04:14:25 10° 65° (ENE) 2,298 6.4 -27.4°
Maximum altitude 04:16:45 13° 93° (E) 2,080 6.1 -26.9°
Drops below altitude 10° 04:19:05 10° 121° (ESE) 2,292 6.0 -26.4°
Sets 04:22:41 0° 148° (SSE) 3,212 6.5 -25.7°
